Weather History for Shawnee, OK

Change the Weather History Date:

Sunday, February 24, 2013

  Actual Average (KTIK) Record (KTIK)
Temperature  
Mean Temperature 50 °F -  
Max Temperature 64 °F 52 °F 73 °F (1998)
Min Temperature 35 °F 32 °F 8 °F (2003)
Degree Days  
Heating Degree Days 16    
Moisture  
Dew Point 38 °F    
Average Humidity 66    
Maximum Humidity 87    
Minimum Humidity 45    
Precipitation  
Precipitation 0.00 in - - ()
Sea Level Pressure  
Sea Level Pressure 29.83 in    
Wind  
Wind Speed 12 mph (SE)    
Max Wind Speed 23 mph    
Max Gust Speed 31 mph    
Visibility 10 miles    
Events      
Averages and records for this station are not official NWS values.
T = Trace of Precipitation, MM = Missing Value Source: NWS Daily Summary

Daily Weather History Graph

Daily Weather History Graph

Search for Another Location

Airport:

Trip Planner

Search our weather history database for the weather conditions in past years. The results will help you decide how hot, cold, wet, or windy it might be!

Date:

Astronomy

Feb. 24, 2013 Rise Set
Actual Time 7:03 AM CST 6:18 PM CST
Civil Twilight 6:37 AM CST 6:44 PM CST
Nautical Twilight 6:08 AM CST 7:14 PM CST
Astronomical Twilight 5:38 AM CST 7:43 PM CST
Moon 5:31 PM CST (2/24) 6:00 AM CST (2/24)
Length of Visible Light 12h 06m
Length of Day
11h 15m
Waxing Gibbous, 99% of the Moon is Illuminated
Feb 24
Waxing Gibbous
Feb 25
Full
Mar 4
Last Quarter
Mar 11
New
Mar 19
First Quarter

Hourly Weather History & Observations

Time (CST) Temp. Windchill Dew Point Humidity Pressure Visibility Wind Dir Wind Speed Gust Speed Precip Events Conditions
12:15 AM 37.4 °F 30.3 °F 32.0 °F 81% 29.92 in 10.0 mi ESE 10.4 mph - N/A   Clear
12:35 AM 37.4 °F 29.8 °F 32.0 °F 81% 29.92 in 10.0 mi SE 11.5 mph - N/A   Clear
12:55 AM 37.4 °F 30.3 °F 32.0 °F 81% 29.91 in 10.0 mi SE 10.4 mph - N/A   Clear
1:15 AM 37.4 °F 31.4 °F 32.0 °F 81% 29.91 in 10.0 mi ESE 8.1 mph - N/A   Clear
1:35 AM 35.6 °F 29.9 °F 32.0 °F 87% 29.92 in 10.0 mi SE 6.9 mph - N/A   Clear
1:55 AM 35.6 °F 30.7 °F 32.0 °F 87% 29.92 in 10.0 mi SE 5.8 mph - N/A   Clear
2:15 AM 35.6 °F 29.9 °F 32.0 °F 87% 29.91 in 10.0 mi ESE 6.9 mph - N/A   Clear
2:35 AM 35.6 °F 28.6 °F 32.0 °F 87% 29.90 in 10.0 mi SE 9.2 mph - N/A   Clear
2:55 AM 35.6 °F 28.6 °F 30.2 °F 81% 29.89 in 10.0 mi SE 9.2 mph - N/A   Clear
3:15 AM 35.6 °F 28.0 °F 32.0 °F 87% 29.88 in 10.0 mi SE 10.4 mph - N/A   Clear
3:35 AM 35.6 °F 29.2 °F 32.0 °F 87% 29.89 in 10.0 mi SE 8.1 mph - N/A   Clear
3:55 AM 35.6 °F 28.6 °F 32.0 °F 87% 29.87 in 10.0 mi SE 9.2 mph - N/A   Clear
4:15 AM 35.6 °F 29.2 °F 30.2 °F 81% 29.87 in 10.0 mi SE 8.1 mph - N/A   Clear
4:35 AM 35.6 °F 29.2 °F 30.2 °F 81% 29.87 in 10.0 mi SE 8.1 mph - N/A   Clear
4:55 AM 35.6 °F 28.6 °F 32.0 °F 87% 29.88 in 10.0 mi SE 9.2 mph - N/A   Clear
5:15 AM 35.6 °F 28.0 °F 32.0 °F 87% 29.87 in 10.0 mi SE 10.4 mph - N/A   Clear
5:35 AM 35.6 °F 28.6 °F 32.0 °F 87% 29.89 in 10.0 mi SE 9.2 mph - N/A   Clear
5:55 AM 35.6 °F 28.6 °F 32.0 °F 87% 29.90 in 10.0 mi South 9.2 mph - N/A   Clear
6:15 AM 35.6 °F 29.2 °F 32.0 °F 87% 29.90 in 10.0 mi South 8.1 mph - N/A   Clear
6:35 AM 35.6 °F 28.6 °F 32.0 °F 87% 29.90 in 10.0 mi SSE 9.2 mph - N/A   Clear
6:55 AM 35.6 °F 28.6 °F 32.0 °F 87% 29.90 in 10.0 mi SSE 9.2 mph - N/A   Clear
7:15 AM 35.6 °F 27.1 °F 32.0 °F 87% 29.89 in 10.0 mi SSE 12.7 mph - N/A   Clear
7:35 AM 37.4 °F 27.8 °F 32.0 °F 81% 29.89 in 10.0 mi SSE 17.3 mph - N/A   Clear
7:55 AM 39.2 °F 30.8 °F 32.0 °F 75% 29.90 in 10.0 mi SSE 15.0 mph 21.9 mph N/A   Clear
8:15 AM 41.0 °F 33.1 °F 33.8 °F 76% 29.90 in 10.0 mi SSE 15.0 mph 20.7 mph N/A   Clear
8:35 AM 42.8 °F 36.2 °F 35.6 °F 76% 29.91 in 10.0 mi SSE 12.7 mph 23.0 mph N/A   Clear
8:55 AM 42.8 °F 34.8 °F 35.6 °F 76% 29.90 in 10.0 mi SSE 17.3 mph 23.0 mph N/A   Clear
9:15 AM 44.6 °F 36.9 °F 37.4 °F 76% 29.91 in 10.0 mi SSE 18.4 mph 23.0 mph N/A   Clear
9:35 AM 48.2 °F - 39.2 °F 71% 29.91 in 10.0 mi South 18.4 mph - N/A   Clear
9:55 AM 51.8 °F - 41.0 °F 67% 29.90 in 10.0 mi South 16.1 mph 29.9 mph N/A   Clear
10:15 AM 51.8 °F - 41.0 °F 67% 29.89 in 10.0 mi South 16.1 mph 25.3 mph N/A   Clear
10:35 AM 53.6 °F - 41.0 °F 62% 29.89 in 10.0 mi SSE 20.7 mph 31.1 mph N/A   Clear
10:55 AM 53.6 °F - 41.0 °F 62% 29.89 in 10.0 mi South 21.9 mph 28.8 mph N/A   Clear
11:15 AM 55.4 °F - 42.8 °F 63% 29.88 in 10.0 mi SSE 17.3 mph 24.2 mph N/A   Clear
11:35 AM 59.0 °F - 42.8 °F 55% 29.87 in 10.0 mi SSE 20.7 mph 24.2 mph N/A   Clear
11:55 AM 59.0 °F - 42.8 °F 55% 29.86 in 10.0 mi South 21.9 mph 26.5 mph N/A   Clear
12:15 PM 59.0 °F - 42.8 °F 55% 29.86 in 10.0 mi SSE 19.6 mph 28.8 mph N/A   Clear
12:35 PM 60.8 °F - 42.8 °F 52% 29.84 in 10.0 mi SSE 19.6 mph 27.6 mph N/A   Clear
12:55 PM 60.8 °F - 41.0 °F 48% 29.83 in 10.0 mi South 20.7 mph 26.5 mph N/A   Clear
1:15 PM 60.8 °F - 41.0 °F 48% 29.82 in 10.0 mi SE 19.6 mph 29.9 mph N/A   Clear
1:35 PM 62.6 °F - 42.8 °F 48% 29.80 in 10.0 mi SSE 20.7 mph 27.6 mph N/A   Clear
1:55 PM 62.6 °F - 41.0 °F 45% 29.78 in 10.0 mi SSE 23.0 mph 29.9 mph N/A   Clear
2:15 PM 62.6 °F - 41.0 °F 45% 29.77 in 10.0 mi South 20.7 mph 27.6 mph N/A   Clear
2:35 PM 62.6 °F - 41.0 °F 45% 29.75 in 10.0 mi SSE 17.3 mph 27.6 mph N/A   Clear
2:55 PM 64.4 °F - 42.8 °F 45% 29.75 in 10.0 mi SSE 18.4 mph 24.2 mph N/A   Clear
3:15 PM 64.4 °F - 42.8 °F 45% 29.74 in 10.0 mi SSE 19.6 mph 25.3 mph N/A   Clear
3:35 PM 64.4 °F - 42.8 °F 45% 29.74 in 10.0 mi SSE 18.4 mph 25.3 mph N/A   Clear
3:55 PM 64.4 °F - 42.8 °F 45% 29.74 in 10.0 mi SE 18.4 mph 25.3 mph N/A   Clear
4:15 PM 64.4 °F - 42.8 °F 45% 29.74 in 10.0 mi SSE 17.3 mph 20.7 mph N/A   Clear
4:35 PM 64.4 °F - 42.8 °F 45% 29.74 in 10.0 mi SE 16.1 mph 25.3 mph N/A   Clear
4:55 PM 62.6 °F - 41.0 °F 45% 29.74 in 10.0 mi SSE 16.1 mph 24.2 mph N/A   Clear
5:15 PM 62.6 °F - 42.8 °F 48% 29.73 in 10.0 mi SSE 17.3 mph - N/A   Clear
5:35 PM 62.6 °F - 42.8 °F 48% 29.73 in 10.0 mi SE 15.0 mph 19.6 mph N/A   Clear
5:55 PM 60.8 °F - 42.8 °F 52% 29.75 in 10.0 mi SE 12.7 mph - N/A   Clear
6:15 PM 60.8 °F - 42.8 °F 52% 29.76 in 10.0 mi SE 13.8 mph 18.4 mph N/A   Clear
6:35 PM 59.0 °F - 41.0 °F 51% 29.76 in 10.0 mi SE 10.4 mph - N/A   Clear
6:55 PM 59.0 °F - 42.8 °F 55% 29.76 in 10.0 mi SE 10.4 mph - N/A   Clear
7:15 PM 55.4 °F - 41.0 °F 58% 29.77 in 10.0 mi SE 6.9 mph - N/A   Clear
7:35 PM 55.4 °F - 41.0 °F 58% 29.77 in 10.0 mi SE 10.4 mph - N/A   Clear
7:55 PM 55.4 °F - 41.0 °F 58% 29.78 in 10.0 mi SE 8.1 mph - N/A   Clear
8:15 PM 55.4 °F - 41.0 °F 58% 29.78 in 10.0 mi SE 6.9 mph - N/A   Clear
8:35 PM 53.6 °F - 39.2 °F 58% 29.78 in 10.0 mi East 4.6 mph - N/A   Clear
8:55 PM 53.6 °F - 41.0 °F 62% 29.78 in 10.0 mi ESE 6.9 mph - N/A   Clear
9:15 PM 51.8 °F - 39.2 °F 62% 29.77 in 10.0 mi East 6.9 mph - N/A   Clear
9:35 PM 51.8 °F - 39.2 °F 62% 29.76 in 10.0 mi East 9.2 mph - N/A   Clear
9:55 PM 51.8 °F - 39.2 °F 62% 29.76 in 10.0 mi East 11.5 mph - N/A   Clear
10:15 PM 51.8 °F - 39.2 °F 62% 29.76 in 10.0 mi East 10.4 mph - N/A   Clear
10:35 PM 51.8 °F - 39.2 °F 62% 29.77 in 10.0 mi East 8.1 mph - N/A   Clear
10:55 PM 51.8 °F - 39.2 °F 62% 29.77 in 10.0 mi ENE 4.6 mph - N/A   Clear
11:15 PM 51.8 °F - 41.0 °F 67% 29.77 in 10.0 mi NE 5.8 mph - N/A   Clear
11:35 PM 51.8 °F - 41.0 °F 67% 29.78 in 10.0 mi NE 4.6 mph - N/A   Clear
11:55 PM 51.8 °F - 41.0 °F 67% 29.78 in 10.0 mi NE 5.8 mph - N/A   Clear